Wind_Speed
11 10 8 8 9 9 7 9 10 9 8 8 8 7 7 6 8 8 6 7 7 7 7 6 5 7 9 8 9 10 8 7 10 9 6 9 8 5 6 8 8 6 4 4 3 3 4 6 7 9 10 10 10 10 9 8 7 8 9 10 9 9 9 8 8 7 7 8 7 8 8 7 7 7 6 5 4 5 5 5 5 6 6 6 6
9 9 10 10 10 9 8 10 9 10 9 8 10 8 7 7 8 9 8 10 7 5 5 5 7 8 8 9 11 10 7 5 8 10 8 7 9 8 9 10 10 8 6 4 3 3 4 5 6 8 9 10 11 10 10 9 8 8 9 11 11 11 11 10 9 8 8 8 8 8 8 8 8 7 6 6 5 6 6 6 7 7 7 7 7
10 9 11 12 11 9 9 9 9 9 8 9 10 8 8 8 9 9 9 8 6 4 5 8 9 8 6 9 11 8 6 4 4 7 6 4 8 11 10 9 9 9 7 4 3 2 3 5 5 5 7 9 10 9 9 10 9 8 9 11 12 12 11 11 10 10 9 9 9 9 9 9 8 8 8 7 7 7 7 8 8 8 8 8 8
11 9 11 12 11 9 8 9 9 9 9 9 9 7 9 10 7 7 6 4 5 8 8 9 8 6 6 7 7 5 5 4 1 4 2 1 7 9 9 8 8 9 7 4 2 1 3 5 4 3 4 6 8 9 9 11 11 11 11 11 12 13 12 12 11 11 11 10 10 10 9 10 9 9 9 9 9 9 8 9 9 9 8 8 8
12 10 10 10 10 9 8 8 9 10 10 9 9 8 9 8 6 5 4 5 9 8 7 7 6 6 5 5 4 3 5 3 2 4 5 3 2 5 7 9 9 8 6 4 2 1 2 4 3 2 2 3 6 9 10 12 13 13 11 11 12 12 12 13 13 12 11 11 10 10 10 10 10 10 10 10 10 10 10 10 10 10 9 9 9
12 9 9 9 9 9 9 9 8 9 10 10 11 9 8 7 6 4 5 7 7 5 6 6 6 6 5 5 3 3 6 4 2 5 5 4 4 5 4 6 8 7 6 5 3 1 2 2 2 2 1 2 4 7 10 11 12 13 11 12 13 12 12 12 12 12 12 11 11 11 10 10 10 10 10 11 12 12 12 12 11 11 11 10 10
11 8 8 8 9 10 10 10 9 10 10 10 11 9 8 6 4 4 5 5 5 3 5 4 5 6 6 7 4 4 6 3 2 3 3 2 3 2 2 3 4 5 6 5 2 1 1 2 1 2 2 2 3 5 7 9 10 11 12 13 14 13 13 12 12 12 13 12 12 12 11 11 10 10 10 10 11 12 12 13 12 13 12 12 11
11 9 8 8 9 10 10 10 10 10 10 10 8 6 5 4 5 4 4 6 2 4 3 3 5 5 6 8 7 6 6 5 4 3 2 3 1 2 3 3 0 2 6 6 5 4 2 2 2 2 3 3 4 4 4 6 8 10 11 13 15 15 14 13 13 14 14 14 14 14 13 12 12 11 11 10 10 11 12 12 13 13 13 13 13
10 9 8 8 8 11 10 10 11 10 11 8 4 3 3 4 4 4 5 4 2 2 3 3 3 5 5 6 6 7 6 6 3 1 2 3 4 2 2 2 2 5 6 7 5 3 4 2 3 2 3 4 5 5 4 4 6 9 11 12 14 14 14 14 15 15 16 16 15 14 15 14 14 13 13 13 12 11 12 12 12 12 12 12 13
9 7 7 7 8 10 10 10 11 9 9 4 4 4 3 1 4 4 6 4 1 1 2 3 3 4 5 3 6 7 3 2 2 2 3 3 4 4 4 4 5 4 3 1 3 3 3 2 3 3 3 4 5 5 5 4 5 8 10 12 13 13 13 14 15 16 17 17 16 16 16 16 15 15 15 15 15 14 14 14 13 13 13 13 13
10 8 7 7 8 9 9 9 8 6 4 3 5 3 1 4 5 4 6 3 3 3 4 5 5 4 5 4 5 7 4 1 1 2 3 1 2 6 4 5 6 5 5 4 0 2 3 2 1 1 2 3 3 4 4 4 4 6 8 10 11 12 13 14 15 16 17 18 17 17 18 18 17 17 17 17 17 17 17 17 16 16 15 14 14
10 9 7 7 9 9 7 6 5 4 1 3 1 4 4 5 4 4 5 3 3 3 5 6 4 3 4 4 4 5 6 2 4 3 2 2 3 7 4 5 7 7 6 5 3 1 2 1 1 1 2 2 2 2 2 3 4 5 7 8 8 10 11 13 14 15 16 17 17 17 17 18 18 19 19 19 19 19 19 19 19 19 18 17 16
9 8 8 8 9 7 4 4 3 2 1 1 3 5 5 4 3 4 3 3 1 2 3 3 4 6 4 3 4 2 4 4 4 3 1 1 4 6 6 6 8 8 8 7 6 5 6 4 3 2 1 1 1 1 1 2 3 5 6 8 9 9 10 10 11 12 14 15 16 16 17 17 18 18 19 20 20 20 21 21 21 21 20 19 19
9 8 8 8 8 5 4 3 3 2 3 1 1 3 3 1 2 4 0 2 2 1 1 2 4 7 4 1 1 3 2 3 2 1 1 1 3 6 6 2 4 5 6 6 5 4 5 3 2 2 1 2 2 2 1 1 1 2 3 5 7 8 8 9 9 10 11 13 14 14 15 16 16 17 18 19 20 21 22 22 22 22 22 22 21
9 8 8 7 6 5 5 3 3 5 4 1 1 3 3 1 1 2 2 3 2 1 2 4 3 2 2 3 1 2 2 4 1 4 4 2 4 3 2 2 4 2 2 3 2 1 1 3 2 2 1 1 1 2 3 1 1 0 1 2 4 6 7 8 9 10 11 12 13 14 14 15 16 16 17 18 19 20 20 21 22 22 23 23 23
9 8 7 7 6 4 4 3 3 5 3 1 2 3 2 0 2 1 4 5 2 3 1 6 4 3 3 4 4 3 4 5 3 3 4 5 3 3 4 5 7 5 2 2 3 0 3 3 3 3 2 2 1 2 1 1 2 3 2 2 3 5 6 8 9 9 10 11 12 13 14 14 14 15 16 17 18 19 20 20 20 21 22 23 23
9 8 7 7 6 4 4 3 3 3 1 2 0 2 1 1 2 1 2 4 2 3 1 3 4 5 3 2 4 6 5 3 3 1 3 4 4 5 6 9 8 5 4 5 4 2 4 5 4 4 4 3 3 3 3 4 4 4 4 4 5 6 6 8 10 11 11 12 12 13 13 14 14 14 15 15 16 18 19 19 20 20 21 21 22
8 8 7 7 6 4 5 5 4 3 2 4 4 4 3 3 3 1 0 4 5 7 4 2 4 4 2 4 4 4 4 2 3 2 3 2 1 3 5 8 8 6 6 7 5 3 4 7 8 6 4 3 4 5 5 5 6 6 6 6 6 6 6 7 9 11 12 13 13 14 14 15 15 15 15 15 16 16 16 17 18 18 19 20 21
8 9 9 8 6 6 7 7 5 1 1 4 4 2 3 4 4 4 3 4 6 7 5 1 4 3 2 3 1 0 2 1 2 2 2 1 2 3 6 6 6 5 5 5 3 1 2 5 8 8 7 7 7 8 9 7 7 8 8 8 8 8 8 8 8 8 10 11 13 14 14 15 16 16 17 17 17 18 17 17 18 18 18 18 19
9 9 9 8 8 8 7 7 5 3 6 7 2 6 6 8 6 5 6 6 9 9 7 5 3 3 3 2 2 1 3 2 1 0 1 1 3 2 2 2 3 2 3 2 1 4 3 1 1 5 7 9 9 9 11 11 9 9 9 10 11 11 11 11 10 10 10 10 11 12 13 14 15 15 16 17 17 18 19 19 19 20 20 19 19
10 10 10 9 9 8 8 7 6 7 10 6 4 8 10 11 9 7 6 7 9 9 8 7 5 3 3 4 4 3 2 1 0 0 0 2 2 2 3 3 1 0 1 2 1 1 4 3 2 4 5 8 9 6 8 12 13 10 10 11 12 13 13 13 13 13 13 13 13 13 13 13 14 14 15 15 16 17 18 18 19 20 21 21 21
11 12 11 10 10 9 8 7 6 9 8 4 7 11 10 7 7 7 7 7 7 8 8 9 7 5 2 2 2 3 2 1 1 1 0 1 1 2 4 3 2 2 2 1 0 3 4 5 5 4 2 5 6 5 7 13 16 14 13 13 13 13 14 15 15 16 16 16 16 15 15 15 15 15 15 16 16 16 16 17 17 18 20 21 22
12 13 14 12 12 11 8 7 9 11 9 9 10 11 6 2 4 7 8 7 7 7 7 7 7 6 4 3 1 2 1 3 2 2 2 2 3 5 5 3 2 4 5 7 9 10 10 8 6 5 5 7 9 8 9 12 16 17 17 16 16 15 15 16 16 17 17 17 18 18 18 18 17 17 17 17 17 17 17 17 17 17 17 18 20
14 15 14 13 14 12 9 9 13 13 10 12 11 8 7 7 7 9 10 10 10 9 8 8 7 6 6 4 1 1 2 3 2 2 3 4 5 6 6 6 5 3 4 7 10 12 12 10 7 7 9 13 13 10 11 13 15 17 17 17 17 17 16 17 17 18 19 19 18 19 19 19 19 19 19 18 18 18 18 19 19 18 18 18 18
17 16 13 13 15 13 13 14 17 15 11 11 12 9 10 11 10 11 13 12 11 10 10 9 7 6 8 7 4 3 3 4 4 4 4 4 7 6 5 7 8 5 3 5 7 11 11 9 8 8 10 14 15 14 15 16 15 15 16 16 17 16 16 17 17 19 19 19 19 19 19 19 19 20 20 20 20 19 19 19 20 20 19 19 19
19 18 15 14 15 14 17 19 20 16 12 12 15 15 16 15 11 12 13 12 11 11 11 11 10 9 8 9 10 10 7 4 3 4 4 4 6 6 8 10 11 9 8 6 8 11 11 9 10 9 10 13 15 17 18 17 16 16 15 16 17 17 17 18 18 19 19 18 18 18 19 20 20 20 20 21 21 21 21 20 20 20 20 20 20
19 19 18 18 18 17 18 19 19 16 13 13 17 19 21 19 15 12 11 11 11 11 11 11 11 9 9 10 12 13 11 7 5 4 5 7 8 9 11 11 10 10 9 9 10 11 10 10 10 10 12 13 13 15 18 17 17 16 15 17 19 18 18 19 20 20 20 19 18 18 19 20 22 22 22 22 22 22 22 22 22 22 21 21 21
20 20 21 21 20 19 19 19 17 13 12 14 17 18 19 20 18 14 13 13 13 11 10 11 10 10 9 10 10 12 13 11 9 8 9 11 12 12 11 10 9 9 9 9 11 10 8 8 10 11 13 13 13 15 18 19 19 19 19 21 22 21 20 20 20 21 22 22 22 21 20 20 22 23 24 24 24 23 23 23 24 23 23 23 23
22 22 23 22 21 21 22 21 18 13 12 14 17 18 18 18 18 16 15 15 14 11 9 9 10 10 9 7 7 9 11 11 11 12 12 12 11 10 9 8 9 9 10 11 12 11 11 11 12 12 13 13 15 18 19 21 21 21 22 23 23 23 22 21 21 22 24 25 25 24 23 22 21 22 24 25 25 25 24 24 25 25 25 25 25
24 24 24 23 23 24 24 22 19 16 14 15 17 19 18 17 18 17 16 17 15 12 9 10 11 11 12 11 8 7 7 7 7 8 10 10 9 7 7 7 8 10 11 12 14 13 13 13 12 11 12 14 17 19 20 22 23 22 22 22 22 22 21 21 21 23 25 26 27 27 26 25 23 23 23 24 25 25 25 25 26 26 27 27 27
26 26 25 24 24 25 25 23 21 18 16 16 17 19 19 18 18 18 17 18 16 13 10 10 11 12 13 14 11 9 10 10 9 9 10 11 10 9 8 8 8 9 10 12 16 16 13 14 14 12 13 15 18 20 20 20 22 23 23 22 21 19 18 19 20 21 23 25 26 27 27 26 25 24 24 24 25 25 26 26 27 27 28 28 28
28 28 27 26 26 26 25 24 23 21 19 18 18 19 20 20 19 18 17 18 17 14 12 11 11 12 12 12 12 13 13 13 12 11 10 11 10 10 10 10 10 11 11 12 16 18 15 14 16 16 15 15 16 18 19 19 20 21 23 23 21 20 19 21 21 22 22 22 23 24 25 25 24 24 24 25 25 26 26 27 28 28 29 29 30
30 30 29 29 28 27 26 25 24 23 21 21 20 19 21 22 21 20 19 18 17 15 13 13 13 13 12 12 13 13 13 12 11 9 9 10 11 10 10 11 11 11 11 12 16 19 19 17 17 18 17 16 17 17 17 19 20 21 23 23 23 23 23 23 22 22 21 21 22 22 22 23 23 24 24 25 26 26 26 27 28 30 30 30 30
31 31 31 31 30 29 27 26 26 25 24 23 22 21 21 21 22 22 21 20 18 16 16 15 15 14 13 13 13 13 12 11 10 10 10 11 11 11 11 11 12 11 11 13 16 19 21 20 20 20 19 19 19 20 20 21 21 22 23 24 24 24 24 23 22 21 21 21 22 22 22 21 22 23 23 24 25 26 27 27 28 29 31 31 31
33 33 33 33 32 31 30 29 28 27 26 25 24 23 21 21 22 23 22 21 20 18 18 18 16 15 15 15 13 12 12 11 11 11 11 11 11 11 11 11 11 11 11 13 15 18 20 21 21 21 22 22 22 23 24 23 23 24 24 24 23 24 24 24 24 23 23 22 22 22 22 21 20 20 21 22 23 24 26 26 26 26 27 29 30
35 36 36 36 35 34 33 32 31 30 28 27 26 26 23 21 22 22 22 22 21 19 18 18 18 17 16 16 14 13 12 12 12 12 12 12 11 11 11 11 11 11 12 13 14 16 19 21 23 23 24 25 25 25 24 24 24 24 23 23 23 24 24 25 25 25 24 23 23 23 23 22 21 21 23 24 25 26 26 26 27 26 26 26 28
37 38 37 37 37 37 36 35 34 33 31 29 28 28 26 23 22 23 23 23 22 20 19 19 19 18 18 17 16 14 12 12 13 14 14 13 12 12 12 11 11 12 14 15 16 16 18 21 24 25 25 25 25 25 24 24 25 25 25 24 23 24 24 25 26 26 26 25 25 23 23 23 24 26 27 27 27 27 28 29 30 29 28 27 27
36 38 39 38 38 38 38 37 37 35 33 31 29 29 28 25 23 24 24 24 23 21 20 20 20 20 19 18 16 14 14 14 15 15 15 14 14 15 14 12 12 14 15 16 17 18 20 22 25 27 27 26 25 26 27 26 25 26 26 25 24 23 22 22 23 24 24 24 25 25 25 26 28 30 30 29 29 30 31 32 31 30 29 29 29
32 36 39 39 38 39 39 39 38 37 36 34 31 30 30 28 25 25 26 25 23 22 22 22 22 22 20 19 18 17 16 16 16 17 16 15 16 16 15 14 14 15 16 17 19 21 23 25 26 28 28 28 27 27 28 27 25 25 23 23 24 22 20 20 22 23 22 23 24 25 27 29 30 31 31 31 31 31 32 32 32 32 32 32 32
32 35 37 38 38 38 40 40 39 39 38 36 33 32 32 29 26 26 27 26 24 23 23 23 23 23 21 20 19 18 17 16 17 17 17 16 16 16 15 15 16 17 18 20 22 24 25 27 28 29 29 29 28 27 28 26 24 24 23 23 24 23 21 22 23 23 22 23 24 26 27 29 30 30 30 30 31 31 32 33 34 36 37 37 36
33 34 34 34 36 37 39 40 39 39 40 38 35 34 33 30 28 28 28 28 25 24 23 24 25 23 22 21 19 17 17 17 17 16 16 15 16 16 16 16 18 19 21 22 23 25 26 27 29 30 29 28 27 26 25 23 22 23 23 23 23 23 23 24 24 23 23 25 27 28 29 30 30 30 31 31 33 34 35 36 37 38 38 36 34
33 32 30 30 33 35 37 38 39 39 39 38 37 35 32 30 30 30 30 29 26 24 23 25 25 23 22 21 18 17 18 19 19 18 17 16 17 18 19 19 19 21 22 24 25 25 25 26 28 28 28 27 26 24 22 21 20 20 20 21 22 24 25 25 26 26 26 27 28 29 31 32 32 33 34 35 37 38 39 39 38 38 37 35 33
33 32 30 30 32 32 33 34 36 39 39 38 40 39 33 30 31 32 31 30 27 24 23 24 24 22 21 21 19 19 20 20 20 20 19 19 20 22 22 21 20 21 23 25 26 26 25 25 26 27 27 27 27 24 22 20 19 20 21 21 23 25 26 27 28 29 28 27 28 31 35 36 36 37 38 39 39 37 35 34 32 31 31 30 30
32 31 30 30 32 32 30 29 30 35 37 38 41 40 33 30 32 33 32 30 27 24 23 23 23 22 23 22 20 20 22 21 21 21 22 22 24 25 24 23 22 23 24 25 26 25 23 23 25 26 26 26 24 22 21 20 21 23 24 24 25 27 27 27 28 29 29 29 32 36 41 41 38 39 38 35 32 29 28 27 26 26 26 27 29
31 31 30 29 30 31 31 29 28 30 32 35 39 39 33 30 31 33 32 29 26 25 23 23 22 22 23 22 20 21 22 21 20 21 23 24 24 24 24 23 24 25 24 24 24 24 22 22 24 25 24 23 23 23 22 23 24 25 26 28 29 29 29 30 31 33 33 34 35 39 42 40 35 33 32 29 28 28 27 26 25 26 28 29 30
29 31 31 31 30 30 31 31 30 30 30 31 35 35 31 30 32 33 31 27 27 26 23 21 21 21 21 21 21 23 23 21 20 21 23 24 23 23 24 25 25 25 24 24 25 23 22 22 23 24 23 22 22 22 22 22 24 26 28 32 33 34 34 34 34 34 33 31 30 33 38 36 31 30 31 30 30 30 30 30 30 30 31 32 34
27 30 31 32 31 31 31 32 33 33 33 32 32 30 28 29 33 32 29 27 27 25 23 22 21 21 21 21 22 24 23 21 20 20 22 24 25 25 26 26 25 25 25 24 22 21 22 23 24 24 23 22 21 21 22 24 26 29 31 33 34 33 32 31 31 30 29 27 26 28 34 35 30 28 30 30 32 33 33 34 34 34 36 37 38
25 27 29 30 30 30 30 32 33 34 34 32 30 27 25 28 31 28 27 28 27 24 22 24 22 20 22 24 24 24 23 22 22 21 22 25 26 26 27 26 25 25 24 21 19 19 21 22 22 22 21 21 21 22 24 27 29 29 28 27 26 26 26 27 28 28 27 27 26 25 30 33 30 29 31 32 33 34 35 36 37 37 38 37 35
24 27 28 28 28 27 27 29 30 32 33 31 30 27 25 28 29 26 26 29 29 25 22 22 21 20 23 24 24 24 23 23 24 23 23 25 26 26 25 25 23 23 22 19 18 17 17 17 18 20 21 21 21 22 24 27 26 22 19 20 21 23 25 27 29 28 27 29 27 23 26 32 31 30 32 33 34 36 38 40 39 37 35 34 33
20 24 26 25 26 25 24 23 25 29 31 30 29 28 27 31 33 29 28 30 31 26 22 20 20 21 23 24 25 25 24 24 25 25 24 25 25 24 24 24 22 21 19 18 16 15 15 17 19 20 21 22 23 24 25 24 19 16 18 22 24 25 27 28 28 28 30 29 25 21 24 29 29 28 32 36 39 40 39 38 35 33 32 32 32
20 22 23 23 25 27 24 21 23 27 30 29 30 29 28 31 33 30 27 29 29 25 23 21 21 23 25 26 26 25 25 25 25 25 24 25 25 24 24 23 22 20 18 18 17 17 18 20 21 21 23 24 25 23 21 18 16 17 22 24 23 23 26 27 27 29 29 27 21 19 25 30 31 33 35 37 40 40 37 34 32 32 33 34 35
Wind_Direction
225 232 231 227 238 253 272 283 286 289 302 317 321 315 303 303 300 290 292 295 297 302 308 321 332 340 337 334 341 350 359 340 340 348 329 322 322 317 325 326 328 323 297 267 250 246 247 235 221 218 219 218 218 211 202 202 209 216 219 214 207 206 206 206 207 210 212 213 214 213 215 219 222 224 224 226 224 223 226 227 232 242 247 253 257
232 233 236 238 249 259 272 280 286 292 296 304 309 310 301 295 298 299 299 294 296 304 315 342 9 10 336 322 335 346 360 342 328 333 327 326 339 341 332 328 329 328 318 290 258 241 233 232 227 223 224 224 227 223 211 203 202 212 224 224 219 213 211 210 209 212 217 219 221 221 222 224 224 226 228 228 229 227 230 234 238 246 252 256 261
230 236 244 251 267 272 271 276 282 288 292 296 301 305 300 302 309 315 314 304 306 328 353 6 17 17 320 307 329 339 353 336 301 325 331 327 330 325 321 324 327 328 329 313 280 248 218 221 225 224 228 229 231 235 226 213 205 207 220 228 226 220 217 216 214 215 218 222 225 227 228 230 230 231 234 235 237 235 234 237 240 247 254 258 263
231 237 249 258 273 279 272 275 283 289 293 297 304 306 298 299 309 323 321 316 2 14 7 3 358 334 299 305 322 326 316 306 347 5 342 353 335 320 316 318 318 329 336 324 292 260 213 212 216 218 223 226 226 229 228 221 214 209 212 223 225 221 221 220 219 220 221 223 227 230 231 233 235 235 238 240 242 244 244 245 246 248 253 257 261
242 243 250 261 273 280 280 281 287 291 295 303 312 311 297 295 305 317 330 5 23 14 340 342 331 302 298 306 313 312 295 292 22 321 254 205 311 292 298 309 313 328 339 329 303 206 202 207 202 197 201 206 214 220 223 222 217 214 213 220 224 222 222 224 224 225 226 227 227 230 232 234 239 239 240 242 244 246 248 250 251 252 254 256 259
244 244 251 263 269 275 284 287 287 294 302 308 306 301 297 299 300 320 21 14 358 325 321 345 336 328 328 303 276 270 275 255 248 281 262 232 253 260 269 291 304 320 336 332 310 200 197 212 200 183 178 173 203 220 226 226 223 220 218 220 225 227 227 230 232 233 233 232 232 232 233 234 237 239 240 242 244 246 249 250 252 254 255 256 257
244 245 249 256 263 272 283 286 288 299 303 300 302 303 306 315 328 11 14 321 289 328 356 338 324 338 325 308 303 274 278 289 318 343 355 281 281 307 295 274 282 305 322 333 2 57 187 200 181 179 191 186 205 228 230 232 230 224 224 224 225 229 229 231 236 239 239 237 237 238 238 240 241 244 243 243 244 246 249 251 254 256 257 257 257
254 251 247 254 266 276 281 286 291 300 300 299 307 305 312 351 4 11 328 292 318 36 351 308 320 321 314 328 334 321 334 8 29 24 344 298 333 6 319 310 332 35 354 2 44 32 349 221 204 195 204 214 217 232 233 236 233 221 225 229 229 232 233 235 238 241 243 241 240 240 241 241 244 249 250 250 250 250 251 251 253 254 257 259 259
260 250 247 260 271 278 285 291 291 295 298 305 332 334 30 32 355 341 306 298 68 38 294 287 313 308 328 348 327 322 352 7 2 2 355 10 26 28 344 333 55 64 25 6 14 355 335 260 224 241 234 229 223 230 235 231 227 218 224 231 231 236 239 240 242 243 245 244 242 243 243 241 240 244 246 249 251 253 255 255 254 254 255 258 260
264 250 250 264 270 276 287 295 290 291 296 336 42 12 40 290 276 287 287 288 81 359 295 277 294 311 326 326 300 304 321 342 317 359 42 34 15 22 18 28 63 85 116 58 337 297 300 278 232 261 256 241 230 230 233 223 210 209 220 231 233 237 241 242 243 245 245 245 245 246 248 248 246 245 245 246 248 250 252 255 256 256 255 255 256
264 256 253 264 268 273 289 302 298 280 277 47 47 1 318 262 267 261 274 313 33 354 329 316 313 300 297 295 294 306 318 283 188 21 46 157 28 43 23 13 60 88 118 132 231 276 281 300 254 233 239 234 227 221 230 229 215 205 211 225 234 242 247 247 248 249 249 248 248 248 251 253 253 251 250 250 251 251 252 254 255 254 254 254 254
258 256 258 267 266 270 285 293 275 242 256 67 119 227 230 255 271 271 289 11 38 351 336 322 326 330 346 340 300 319 348 42 120 55 50 179 9 37 48 16 49 63 52 76 98 53 325 329 89 218 232 224 233 224 232 237 225 217 212 215 227 238 244 247 249 251 253 253 252 252 253 253 252 253 254 255 255 255 255 255 254 253 252 252 254
261 258 264 268 261 266 271 252 232 229 330 123 200 244 257 263 279 286 336 39 23 337 317 297 15 4 342 316 286 301 2 44 94 69 125 166 9 45 88 54 49 56 34 37 57 36 17 31 70 49 359 40 2 286 275 272 232 213 216 220 225 231 237 242 245 249 252 254 255 256 257 256 254 252 253 256 257 257 257 256 256 256 256 256 256
263 259 266 262 252 261 248 221 161 177 250 205 170 308 318 312 276 278 48 63 298 299 292 282 6 353 313 283 220 209 290 345 16 56 82 124 92 91 94 45 17 60 61 48 51 41 26 18 59 70 50 49 27 357 20 5 189 189 214 228 235 238 244 250 253 253 253 254 257 258 259 259 258 258 256 256 257 258 257 257 258 259 260 260 259
257 254 261 254 250 257 242 233 164 192 235 152 165 289 326 39 221 274 170 164 278 268 35 348 324 341 5 348 337 196 306 350 102 106 75 120 161 133 64 1 339 17 109 102 78 89 324 328 4 47 356 8 14 360 34 82 131 273 261 252 250 251 255 261 264 262 259 258 260 261 261 260 260 260 261 260 260 260 259 259 260 260 260 259 260
246 239 245 246 249 244 230 245 197 207 243 140 224 281 337 56 162 162 198 193 265 254 339 8 340 322 355 332 340 62 38 30 76 101 88 87 76 11 7 3 348 334 300 123 114 297 319 357 31 38 355 349 336 321 340 320 309 309 305 295 273 267 266 268 270 268 264 262 262 263 264 263 263 263 262 262 261 262 262 262 263 262 262 261 260
235 229 237 238 242 224 206 228 207 210 231 106 283 276 135 202 197 106 228 213 143 127 135 354 353 335 339 20 31 31 14 11 29 34 126 92 47 22 11 0 2 10 17 47 86 23 354 28 44 30 11 360 346 328 310 307 309 303 302 298 284 277 273 270 270 270 268 266 265 264 265 265 266 266 265 264 263 263 263 264 265 265 265 263 262
228 224 231 226 223 210 194 201 207 225 195 156 205 235 168 171 206 132 72 210 165 116 102 328 1 4 13 64 60 9 341 329 23 39 146 145 335 4 2 4 21 41 37 38 68 67 12 16 12 6 2 344 334 323 315 318 317 314 312 305 302 298 290 278 272 272 273 273 271 269 268 266 266 265 265 264 264 264 264 264 264 265 265 264 263
217 216 225 222 208 204 199 197 203 258 270 202 193 182 162 181 197 200 202 189 173 146 130 93 31 58 87 61 89 343 360 8 24 50 114 162 236 306 341 354 11 38 82 85 95 138 357 25 10 351 345 339 334 320 312 315 312 314 315 311 311 309 307 304 293 286 283 282 281 279 277 275 273 270 268 266 265 264 264 264 264 264 264 264 264
215 218 223 220 210 208 204 200 186 170 242 253 162 131 181 198 191 205 208 172 170 177 162 145 109 117 149 158 173 80 29 16 340 60 138 271 252 253 314 343 355 48 103 104 263 283 303 66 46 338 329 316 326 323 307 308 310 312 316 314 311 307 305 304 301 299 293 290 288 287 287 286 285 283 279 276 272 269 267 265 265 265 265 265 264
204 215 221 218 218 216 211 208 190 191 228 246 140 170 210 216 215 216 194 168 173 178 175 180 183 171 169 185 183 140 97 132 136 138 242 307 292 221 232 255 254 144 18 6 69 352 338 339 312 350 333 302 323 328 290 300 309 314 320 316 310 306 305 304 301 300 297 294 292 289 289 289 290 291 290 289 285 281 277 272 269 267 266 267 266
202 209 221 223 225 228 225 211 198 212 219 174 164 203 223 227 221 205 174 165 168 167 178 194 197 201 197 173 162 124 123 212 212 188 332 344 306 266 276 290 248 240 268 246 297 316 318 318 307 324 292 262 310 313 281 294 301 311 321 315 310 307 305 304 302 301 299 298 297 294 292 290 289 289 290 291 291 290 289 285 281 276 271 269 268
214 211 222 225 227 229 218 196 207 221 205 176 193 212 211 227 223 197 182 175 177 179 189 196 199 208 189 143 102 98 162 274 233 210 265 273 254 260 280 317 288 259 256 257 281 299 307 310 299 294 272 264 282 281 272 280 289 305 315 313 312 311 308 306 302 300 299 298 298 298 297 295 293 291 289 289 289 290 291 290 289 286 282 278 274
218 219 224 220 223 219 191 197 224 230 211 190 196 200 206 240 245 212 197 189 191 195 198 203 207 197 161 142 10 54 208 255 218 231 280 270 267 271 274 295 299 283 286 288 294 304 312 305 284 277 278 281 283 275 273 278 283 297 303 304 308 310 310 308 304 301 300 298 297 295 295 295 296 296 294 292 290 289 288 289 290 289 288 286 283
214 215 216 213 221 210 182 202 226 232 229 202 181 176 202 230 238 214 202 198 198 201 203 206 210 196 176 181 197 193 227 260 247 244 259 259 282 293 271 278 283 269 288 318 307 305 309 300 283 273 261 267 275 278 283 288 289 291 292 295 301 305 307 306 303 303 302 301 299 296 294 293 293 293 293 293 291 289 287 286 287 288 288 288 287
215 209 206 209 221 210 192 207 223 228 230 205 183 183 194 210 222 208 202 202 199 201 205 203 207 212 205 198 191 186 199 226 234 240 236 235 268 277 258 265 275 267 264 278 284 286 293 300 298 284 266 266 270 276 284 288 290 291 289 292 297 302 304 303 301 298 297 297 296 295 294 293 293 291 290 289 288 288 286 284 284 284 285 285 285
221 215 208 210 220 220 211 220 229 226 223 209 199 198 197 205 218 210 202 212 213 208 204 201 207 214 217 219 210 197 197 204 202 213 232 233 242 257 262 267 278 278 269 267 270 271 280 299 301 291 286 283 276 280 289 293 295 295 293 293 296 302 303 299 298 297 297 296 293 290 289 289 291 291 289 287 284 283 282 281 280 280 280 281 281
225 222 218 216 221 228 227 229 232 224 218 216 211 210 207 210 220 214 201 212 223 218 209 204 204 208 217 229 227 207 203 210 206 202 224 236 240 251 262 267 274 279 272 267 272 273 276 288 292 291 288 283 283 289 294 296 298 298 297 296 297 302 304 301 300 300 299 297 294 291 288 285 285 286 287 286 284 281 278 276 276 276 277 277 277
225 225 225 222 221 228 231 233 235 230 220 217 215 217 218 215 219 219 208 212 224 222 214 208 202 203 214 232 244 225 211 215 216 217 231 242 244 247 252 256 260 262 263 266 273 276 276 277 282 288 287 282 284 290 293 294 295 295 295 295 297 300 300 298 297 297 297 297 296 295 292 288 285 282 282 282 283 282 278 274 272 271 272 273 274
223 226 227 225 221 223 230 235 239 236 225 220 217 218 222 221 220 224 219 217 222 219 213 213 205 202 207 214 231 240 232 232 229 230 244 255 263 262 259 260 259 258 258 262 270 276 280 285 287 285 286 286 284 285 287 288 289 292 293 291 290 290 287 285 287 291 295 296 296 296 295 292 289 285 282 281 282 283 281 277 273 270 269 269 270
222 225 226 227 224 222 227 234 237 235 227 223 221 217 221 225 223 224 221 218 221 220 213 214 211 209 211 208 211 224 229 229 227 229 241 256 269 274 275 276 272 271 268 265 271 279 285 288 287 279 277 279 280 282 284 283 284 287 289 290 290 287 281 278 283 287 289 289 291 292 292 292 291 289 286 284 283 284 283 281 278 274 271 269 268
223 226 226 229 230 227 228 231 234 234 227 222 224 219 218 224 226 224 221 217 220 220 214 214 214 213 214 210 210 220 226 229 233 237 241 252 263 267 273 274 269 271 274 269 273 282 287 284 284 287 286 281 277 279 284 287 287 284 284 287 288 286 283 282 286 287 284 282 283 285 286 286 288 289 288 286 284 283 283 282 281 279 276 273 270
227 228 228 230 234 233 231 232 234 235 228 221 223 221 218 224 227 225 223 219 219 219 215 216 217 214 215 220 222 226 232 237 244 249 249 252 259 263 267 269 271 276 280 279 280 286 291 290 290 295 297 292 287 286 290 294 294 288 285 286 285 284 284 285 287 288 285 283 283 282 281 281 283 285 286 285 283 283 281 279 278 278 276 274 272
231 231 230 232 236 236 235 236 236 235 230 222 221 221 219 223 224 223 223 221 220 219 215 218 224 219 216 224 229 232 237 241 244 250 252 253 257 261 261 263 268 271 273 278 281 285 292 298 300 301 301 301 301 303 303 298 291 285 283 285 286 285 286 286 287 286 285 284 284 283 283 285 285 284 283 283 283 284 283 281 279 277 276 275 273
229 232 234 235 237 238 238 238 236 235 232 225 221 220 221 223 221 219 220 221 221 222 220 222 227 224 220 224 228 231 237 240 243 247 249 252 257 260 263 265 265 263 263 268 276 284 294 302 305 305 306 307 306 305 303 297 291 287 285 285 286 286 286 286 286 286 285 283 281 281 284 286 286 286 286 287 288 289 288 287 285 282 280 279 277
226 231 236 236 236 237 239 237 235 235 234 228 222 221 223 225 221 217 218 221 223 225 225 226 227 226 225 225 226 230 236 240 245 251 251 255 261 264 266 269 272 276 276 274 280 289 299 304 306 309 311 310 306 304 302 298 295 294 292 291 291 290 288 285 284 286 287 285 282 282 284 285 286 289 293 293 291 290 290 291 290 287 285 283 281
227 231 235 236 235 236 237 237 236 235 236 233 226 223 224 225 222 219 218 220 225 227 228 229 229 228 227 228 229 230 234 238 245 253 257 257 259 261 265 268 272 279 282 285 290 296 300 303 306 308 309 308 304 301 301 300 298 298 297 295 295 294 291 286 283 285 287 286 284 285 285 285 287 291 294 294 291 289 289 291 291 289 286 285 282
226 231 235 236 236 237 237 237 236 236 237 236 231 226 224 224 222 220 218 220 225 227 228 229 229 229 229 231 233 233 234 236 241 249 253 251 251 256 262 266 268 273 280 287 293 297 300 302 304 305 306 307 304 301 303 304 300 298 296 295 296 296 291 286 284 285 286 283 281 282 282 284 287 289 292 293 291 290 290 291 291 289 287 285 284
226 232 237 237 238 239 238 237 237 237 237 236 233 228 225 224 222 221 219 219 223 225 227 229 229 230 232 233 235 237 238 239 241 245 245 244 248 254 258 260 266 273 281 286 290 294 298 299 301 302 303 305 305 303 306 308 304 301 300 297 298 297 291 289 291 290 288 284 282 282 283 285 287 288 290 291 291 292 293 293 293 293 291 290 288
226 232 240 242 242 242 240 238 237 236 234 233 232 228 225 223 223 223 220 219 222 224 225 228 229 230 232 236 239 242 244 246 248 247 244 242 245 252 257 262 270 277 282 286 289 292 295 297 298 299 301 303 303 303 305 306 304 303 302 300 299 297 293 291 292 290 289 288 288 288 289 289 289 289 289 289 289 291 292 292 293 294 293 292 291
226 228 235 240 241 241 240 237 234 232 231 232 231 229 225 224 225 225 221 219 221 222 224 229 231 229 232 237 240 242 246 252 255 255 252 248 249 255 263 270 276 281 283 286 289 291 293 295 295 296 298 298 297 298 300 298 296 297 298 299 299 297 294 293 292 291 291 292 293 294 295 294 292 289 288 288 290 292 291 291 291 290 289 290 288
227 224 226 231 235 238 239 235 230 227 228 231 233 230 228 229 230 226 220 219 220 221 223 229 231 230 233 238 241 246 247 248 254 259 260 256 255 260 267 272 277 281 283 285 289 291 292 291 292 293 292 290 291 292 290 289 291 292 290 290 290 290 292 293 293 295 296 296 296 294 294 294 291 289 290 291 293 294 292 292 290 286 284 282 279
229 226 224 228 232 235 238 235 228 226 231 237 237 233 232 234 233 227 221 219 219 219 223 230 232 230 232 235 240 248 249 245 245 251 256 256 256 261 267 272 277 282 284 285 287 289 288 288 290 291 289 288 290 291 289 289 290 287 284 284 286 290 293 292 293 295 296 297 294 291 291 293 291 290 291 293 295 296 295 295 293 289 284 280 279
230 229 226 228 230 232 233 231 228 229 235 241 240 237 237 237 231 226 223 221 220 219 223 229 230 230 234 238 241 246 249 247 242 244 247 250 253 259 265 271 278 281 282 284 286 286 286 288 290 292 292 292 293 292 290 289 287 285 285 286 289 292 292 290 290 291 293 294 292 291 292 293 293 292 294 296 298 299 297 295 294 292 291 292 294
227 228 227 227 229 230 228 228 229 229 233 240 241 240 240 235 227 224 223 222 223 222 223 227 232 237 240 241 243 245 244 242 241 244 247 250 255 260 265 272 279 282 283 285 285 283 285 289 289 291 294 294 291 290 289 285 283 284 285 289 292 292 289 289 289 290 293 295 295 294 294 296 298 298 299 303 304 302 301 299 298 297 296 295 294
226 229 229 228 229 230 228 229 229 228 235 245 245 243 241 233 226 223 222 223 226 227 228 233 242 249 246 241 246 249 243 238 240 244 249 254 259 264 269 276 281 281 284 287 286 285 289 291 288 289 293 291 287 285 282 279 279 283 288 292 293 292 291 292 293 296 299 301 304 300 296 299 305 303 302 307 307 304 302 299 296 292 289 286 285
226 230 229 228 229 231 231 229 229 232 241 247 247 247 245 234 227 222 221 224 228 230 236 244 252 254 244 240 249 251 244 242 246 251 254 257 264 270 274 277 278 279 284 288 286 285 288 287 285 286 289 287 284 282 281 282 285 288 290 292 292 293 297 299 302 304 305 309 313 302 292 297 305 301 299 303 301 298 296 293 290 286 285 286 288
225 229 230 229 231 233 231 229 230 235 240 242 246 251 245 231 223 219 221 226 228 230 240 251 260 255 240 239 249 251 247 246 250 256 259 261 267 273 276 277 278 282 288 288 282 279 279 281 284 287 287 285 282 281 281 284 287 290 291 292 294 300 303 303 303 304 304 306 311 302 291 293 297 296 296 297 295 293 291 289 288 289 290 292 294
220 226 229 231 235 236 230 226 230 236 238 239 245 249 237 221 215 217 224 228 228 232 244 255 261 252 239 241 248 251 251 250 253 258 260 261 267 274 277 278 279 283 287 285 282 283 284 283 283 282 281 279 278 279 283 286 290 294 293 294 303 308 301 295 296 298 297 299 306 305 292 288 292 295 296 294 291 290 290 290 293 295 296 296 296
220 224 225 227 231 229 224 226 231 234 236 236 239 240 227 214 214 223 231 229 226 233 250 259 256 245 240 246 250 250 253 254 255 258 259 261 269 274 276 277 277 277 280 280 279 279 277 275 274 274 277 281 285 289 293 294 297 301 295 295 304 304 293 289 291 293 294 298 305 303 290 288 293 296 295 294 293 292 293 295 298 298 297 297 296
222 228 227 226 229 228 229 235 235 233 236 235 235 236 230 222 224 231 232 225 224 236 253 258 250 243 244 250 252 253 257 257 256 257 260 264 271 274 273 274 273 273 277 279 276 270 266 267 272 276 280 286 292 296 299 300 303 305 301 301 303 296 289 291 293 292 294 297 298 292 287 290 295 296 296 298 297 297 299 300 299 299 300 301 301
Height
1575 1575 1575 1574 1574 1574 1575 1575 1575 1575 1575 1575 1575 1575 1575 1575 1576 1576 1576 1576 1575 1575 1575 1575 1575 1575 1574 1574 1574 1574 1574 1574 1575 1574 1574 1573 1573 1574 1574 1574 1574 1574 1574 1573 1573 1574 1574 1574 1575 1576 1577 1578 1579 1580 1581 1582 1583 1584 1584 1584 1584 1585 1585 1586 1587 1587 1588 1588 1589 1589 1590 1591 1592 1592 1593 1593 1594 1594 1595 1596 1597 1597 1598 1599 1599
1574 1574 1574 1574 1574 1574 1575 1575 1574 1575 1574 1574 1574 1575 1575 1575 1575 1575 1575 1574 1574 1574 1574 1574 1574 1574 1574 1574 1574 1574 1574 1574 1574 1574 1574 1573 1572 1573 1574 1573 1574 1573 1573 1573 1573 1573 1573 1574 1574 1575 1576 1577 1578 1579 1581 1582 1583 1583 1583 1583 1583 1583 1584 1585 1585 1586 1587 1588 1588 1589 1589 1590 1591 1592 1592 1593 1593 1594 1594 1595 1596 1596 1597 1597 1598
1573 1573 1573 1573 1573 1574 1574 1574 1574 1574 1574 1574 1574 1574 1574 1574 1574 1574 1574 1573 1574 1574 1574 1573 1573 1574 1575 1574 1574 1574 1574 1574 1574 1574 1575 1574 1572 1572 1573 1573 1573 1573 1573 1572 1573 1573 1573 1573 1573 1574 1575 1576 1578 1580 1581 1582 1582 1581 1581 1581 1582 1583 1583 1584 1584 1585 1586 1587 1587 1588 1589 1590 1590 1591 1592 1592 1593 1593 1594 1594 1595 1595 1596 1596 1597
1571 1572 1573 1573 1573 1573 1573 1573 1573 1573 1574 1573 1574 1574 1574 1574 1573 1573 1573 1573 1573 1573 1573 1573 1573 1574 1574 1574 1574 1574 1574 1573 1574 1574 1575 1574 1573 1572 1572 1572 1572 1572 1572 1572 1572 1572 1572 1572 1573 1573 1574 1575 1576 1577 1579 1579 1578 1577 1578 1579 1580 1581 1582 1583 1584 1584 1585 1586 1587 1588 1588 1589 1590 1590 1591 1592 1592 1593 1593 1594 1594 1595 1595 1595 1596
1570 1571 1572 1572 1572 1572 1572 1573 1573 1573 1573 1573 1573 1573 1573 1573 1573 1572 1573 1573 1573 1573 1573 1573 1573 1573 1573 1573 1573 1573 1573 1572 1573 1573 1573 1573 1573 1572 1571 1571 1571 1571 1572 1571 1572 1572 1572 1572 1572 1573 1573 1574 1575 1575 1574 1574 1574 1575 1576 1578 1579 1580 1581 1582 1583 1584 1584 1585 1586 1587 1588 1588 1589 1589 1590 1591 1591 1592 1593 1593 1594 1594 1594 1595 1595
1569 1570 1571 1571 1571 1571 1571 1571 1572 1572 1572 1572 1572 1572 1572 1572 1572 1572 1572 1573 1573 1573 1573 1572 1572 1572 1572 1572 1572 1572 1571 1571 1571 1571 1571 1572 1572 1571 1571 1571 1571 1571 1571 1571 1571 1571 1571 1571 1571 1572 1572 1573 1573 1573 1572 1573 1574 1575 1576 1577 1578 1579 1580 1581 1582 1583 1584 1584 1585 1586 1586 1587 1588 1588 1589 1589 1590 1591 1592 1592 1593 1593 1594 1594 1594
1568 1569 1569 1570 1570 1570 1570 1571 1571 1572 1571 1570 1570 1570 1571 1571 1572 1572 1572 1572 1572 1572 1572 1572 1572 1572 1572 1571 1571 1570 1570 1570 1570 1570 1571 1571 1571 1571 1571 1571 1571 1570 1570 1571 1571 1571 1571 1571 1571 1571 1572 1572 1572 1572 1572 1573 1574 1575 1575 1576 1577 1578 1579 1580 1581 1582 1583 1584 1584 1585 1586 1586 1587 1587 1588 1588 1589 1590 1590 1591 1592 1592 1593 1593 1593
1567 1568 1568 1569 1569 1569 1570 1570 1571 1571 1571 1569 1569 1570 1571 1571 1571 1571 1571 1571 1571 1571 1572 1571 1571 1571 1571 1571 1570 1570 1570 1569 1570 1570 1570 1570 1570 1571 1570 1570 1570 1570 1570 1570 1570 1571 1570 1570 1570 1570 1571 1571 1571 1571 1572 1572 1573 1574 1575 1576 1577 1578 1579 1580 1580 1581 1582 1583 1584 1584 1585 1585 1586 1586 1587 1587 1588 1589 1589 1590 1590 1591 1592 1592 1592
1566 1567 1567 1568 1568 1568 1568 1569 1569 1570 1570 1568 1568 1569 1570 1571 1571 1571 1571 1570 1570 1570 1570 1570 1570 1570 1570 1571 1570 1570 1570 1570 1570 1570 1570 1570 1570 1570 1570 1570 1570 1570 1570 1570 1570 1570 1570 1570 1569 1569 1570 1570 1570 1571 1571 1572 1572 1574 1575 1575 1576 1577 1578 1579 1579 1580 1581 1582 1582 1583 1584 1584 1584 1585 1586 1586 1587 1588 1588 1589 1589 1590 1590 1590 1591
1565 1566 1566 1567 1567 1567 1567 1567 1568 1568 1568 1568 1568 1569 1570 1571 1571 1570 1570 1569 1569 1569 1569 1569 1569 1570 1570 1570 1570 1569 1569 1570 1570 1569 1569 1570 1570 1569 1570 1570 1569 1570 1571 1570 1570 1570 1570 1569 1569 1569 1569 1570 1570 1570 1571 1571 1572 1573 1574 1575 1575 1576 1576 1577 1578 1579 1579 1580 1581 1582 1582 1583 1583 1584 1584 1585 1585 1586 1587 1587 1588 1588 1588 1589 1589
1564 1565 1566 1566 1566 1566 1566 1566 1566 1567 1568 1567 1568 1569 1569 1570 1570 1569 1569 1569 1569 1569 1569 1569 1569 1569 1569 1569 1569 1569 1569 1569 1569 1569 1569 1570 1570 1570 1570 1570 1570 1570 1570 1571 1570 1569 1569 1569 1569 1569 1569 1569 1569 1570 1570 1571 1572 1572 1573 1574 1574 1575 1575 1576 1577 1577 1578 1578 1579 1580 1581 1581 1582 1583 1583 1583 1584 1584 1585 1585 1586 1586 1587 1587 1587
1563 1564 1564 1565 1564 1564 1565 1565 1565 1566 1567 1567 1568 1569 1568 1568 1568 1568 1568 1568 1568 1569 1569 1568 1568 1568 1568 1568 1568 1568 1568 1568 1568 1569 1569 1570 1570 1570 1570 1570 1570 1570 1570 1571 1570 1569 1569 1569 1569 1569 1569 1569 1569 1570 1570 1570 1571 1572 1572 1573 1573 1573 1574 1574 1575 1576 1576 1577 1578 1578 1579 1579 1580 1581 1581 1582 1582 1583 1583 1584 1584 1584 1585 1585 1586
1562 1562 1563 1563 1563 1563 1563 1564 1565 1565 1566 1567 1567 1567 1567 1567 1567 1567 1567 1568 1568 1568 1568 1568 1568 1568 1567 1568 1568 1568 1568 1568 1568 1569 1570 1571 1570 1570 1570 1570 1570 1571 1571 1571 1570 1570 1569 1569 1569 1569 1569 1569 1569 1569 1570 1570 1570 1571 1571 1572 1572 1572 1572 1573 1573 1574 1575 1575 1576 1576 1577 1578 1578 1579 1579 1580 1580 1581 1581 1582 1582 1583 1583 1584 1584
1560 1561 1562 1561 1561 1562 1562 1563 1564 1564 1565 1565 1565 1565 1565 1566 1566 1566 1567 1567 1568 1568 1568 1568 1568 1567 1567 1567 1567 1568 1568 1569 1568 1569 1571 1571 1571 1571 1570 1570 1571 1571 1572 1572 1571 1571 1570 1569 1569 1569 1569 1569 1569 1570 1570 1570 1570 1570 1571 1571 1571 1571 1571 1572 1572 1573 1573 1574 1574 1575 1575 1575 1576 1577 1577 1578 1578 1578 1579 1579 1580 1581 1581 1582 1582
1559 1560 1560 1560 1560 1561 1561 1562 1563 1563 1564 1564 1564 1564 1564 1565 1565 1565 1566 1567 1567 1567 1568 1568 1567 1567 1567 1567 1567 1568 1568 1568 1568 1568 1570 1571 1570 1570 1570 1570 1571 1571 1571 1572 1571 1571 1570 1569 1569 1569 1569 1569 1569 1569 1569 1570 1570 1570 1570 1571 1571 1571 1571 1571 1571 1572 1572 1572 1573 1573 1573 1574 1574 1575 1575 1576 1576 1576 1577 1577 1578 1578 1579 1580 1580
1557 1558 1558 1559 1559 1560 1560 1561 1562 1562 1562 1563 1563 1563 1564 1564 1565 1565 1565 1566 1567 1567 1567 1568 1568 1567 1567 1567 1567 1568 1568 1569 1569 1569 1570 1570 1569 1570 1570 1570 1571 1571 1571 1571 1571 1571 1570 1570 1569 1568 1568 1568 1569 1569 1570 1570 1570 1570 1570 1571 1571 1571 1571 1571 1571 1571 1571 1571 1571 1571 1572 1572 1572 1573 1573 1574 1574 1574 1575 1575 1576 1576 1577 1577 1577
1556 1556 1557 1558 1558 1559 1559 1560 1560 1561 1561 1562 1562 1563 1563 1564 1564 1565 1565 1565 1566 1567 1567 1568 1568 1567 1567 1567 1568 1568 1569 1569 1569 1569 1569 1569 1569 1570 1570 1570 1570 1570 1570 1571 1571 1570 1570 1570 1570 1569 1568 1568 1568 1568 1569 1570 1570 1570 1570 1570 1570 1570 1570 1570 1570 1569 1569 1569 1570 1570 1570 1570 1571 1571 1571 1571 1572 1572 1572 1573 1573 1574 1574 1575 1575
1554 1555 1556 1556 1557 1558 1558 1559 1559 1560 1560 1561 1562 1562 1563 1563 1563 1564 1564 1564 1565 1566 1567 1567 1568 1567 1567 1567 1568 1569 1569 1569 1569 1569 1569 1569 1569 1570 1570 1570 1570 1570 1570 1570 1571 1571 1570 1570 1569 1569 1569 1568 1568 1568 1568 1569 1569 1569 1570 1570 1570 1570 1570 1570 1569 1569 1568 1568 1568 1569 1569 1569 1569 1569 1569 1570 1570 1570 1570 1570 1571 1571 1572 1572 1573
1553 1554 1554 1555 1556 1556 1557 1558 1558 1559 1559 1560 1561 1561 1562 1562 1563 1563 1563 1564 1564 1565 1566 1567 1567 1567 1567 1568 1568 1568 1568 1569 1569 1569 1569 1569 1570 1570 1570 1570 1569 1569 1570 1571 1571 1571 1570 1570 1570 1569 1569 1568 1568 1567 1567 1568 1568 1569 1569 1569 1569 1569 1569 1569 1568 1568 1568 1568 1567 1567 1567 1567 1567 1568 1568 1568 1568 1568 1568 1568 1569 1569 1569 1570 1570
1552 1552 1553 1553 1554 1555 1556 1557 1557 1558 1558 1558 1560 1560 1561 1561 1561 1562 1562 1563 1563 1564 1565 1566 1566 1566 1567 1567 1568 1568 1568 1569 1569 1569 1569 1570 1570 1570 1570 1570 1569 1569 1570 1570 1570 1570 1570 1571 1570 1570 1569 1568 1568 1567 1566 1567 1567 1568 1568 1568 1568 1568 1568 1567 1567 1567 1567 1567 1567 1566 1566 1566 1566 1566 1566 1566 1566 1566 1566 1566 1566 1566 1567 1567 1567
1551 1551 1551 1552 1552 1553 1554 1555 1556 1557 1557 1557 1558 1559 1559 1559 1560 1560 1561 1562 1562 1563 1564 1564 1564 1565 1565 1566 1567 1567 1568 1568 1568 1569 1569 1569 1570 1570 1570 1570 1570 1570 1570 1569 1569 1569 1569 1569 1570 1570 1569 1568 1568 1568 1566 1565 1566 1567 1567 1567 1567 1567 1566 1566 1566 1566 1565 1565 1565 1565 1565 1565 1565 1564 1564 1564 1564 1564 1564 1564 1564 1564 1564 1565 1565
1549 1549 1550 1551 1551 1552 1553 1554 1555 1555 1556 1557 1557 1557 1558 1558 1559 1559 1559 1560 1561 1562 1562 1563 1563 1564 1564 1565 1566 1566 1567 1568 1568 1568 1568 1569 1569 1569 1569 1570 1570 1570 1570 1569 1569 1569 1569 1569 1569 1569 1570 1569 1568 1567 1567 1565 1564 1565 1566 1566 1566 1566 1565 1565 1564 1564 1564 1563 1563 1563 1563 1563 1563 1563 1563 1563 1562 1562 1562 1562 1562 1562 1562 1562 1562
1547 1548 1548 1549 1550 1551 1552 1553 1554 1554 1554 1556 1556 1556 1557 1557 1557 1558 1558 1559 1559 1560 1561 1562 1562 1563 1563 1564 1565 1566 1566 1567 1567 1568 1568 1568 1568 1568 1568 1569 1569 1570 1569 1568 1568 1568 1568 1568 1568 1568 1568 1568 1568 1567 1566 1565 1564 1563 1564 1564 1564 1564 1564 1564 1563 1563 1562 1562 1561 1561 1561 1561 1561 1561 1561 1561 1561 1561 1560 1560 1560 1560 1560 1560 1560
1546 1546 1547 1548 1548 1550 1552 1552 1552 1552 1553 1554 1555 1555 1556 1556 1556 1556 1556 1557 1557 1558 1560 1561 1562 1562 1563 1563 1564 1565 1565 1566 1567 1567 1567 1567 1567 1567 1567 1568 1568 1568 1568 1567 1567 1567 1567 1567 1567 1567 1567 1566 1566 1566 1565 1564 1564 1563 1563 1562 1562 1562 1562 1562 1561 1561 1561 1560 1560 1559 1559 1559 1559 1559 1559 1559 1559 1559 1559 1558 1558 1558 1558 1558 1558
1543 1544 1545 1546 1546 1548 1551 1551 1550 1551 1552 1553 1554 1555 1555 1554 1555 1555 1556 1556 1556 1557 1558 1559 1561 1562 1562 1562 1563 1564 1565 1565 1565 1566 1566 1567 1567 1567 1567 1567 1567 1567 1567 1567 1566 1566 1566 1565 1565 1565 1565 1564 1564 1564 1564 1563 1563 1563 1562 1561 1561 1561 1561 1560 1560 1559 1559 1558 1558 1557 1557 1557 1557 1557 1557 1557 1557 1557 1557 1557 1556 1556 1556 1556 1556
1541 1543 1544 1544 1545 1547 1549 1549 1549 1550 1551 1551 1552 1553 1553 1553 1553 1555 1555 1556 1556 1556 1557 1558 1559 1560 1561 1562 1562 1562 1563 1564 1564 1564 1565 1566 1566 1565 1565 1566 1566 1566 1566 1566 1565 1565 1564 1564 1564 1564 1564 1564 1563 1563 1562 1562 1561 1561 1560 1560 1559 1559 1559 1559 1558 1558 1557 1557 1556 1556 1555 1555 1555 1555 1555 1554 1554 1554 1554 1554 1554 1554 1554 1554 1554
1539 1541 1543 1543 1543 1545 1547 1547 1547 1548 1549 1550 1550 1551 1551 1552 1552 1554 1555 1556 1556 1556 1556 1557 1558 1559 1560 1561 1561 1561 1561 1562 1562 1563 1563 1564 1564 1564 1564 1564 1565 1565 1565 1564 1564 1564 1563 1563 1563 1563 1562 1562 1562 1561 1560 1560 1559 1559 1559 1558 1558 1558 1557 1557 1556 1555 1555 1555 1554 1554 1554 1553 1552 1552 1552 1552 1552 1552 1551 1551 1551 1551 1551 1551 1551
1537 1539 1540 1541 1541 1542 1544 1545 1545 1546 1547 1548 1549 1550 1551 1551 1551 1552 1553 1554 1555 1555 1555 1556 1556 1558 1559 1559 1560 1560 1560 1560 1560 1561 1562 1562 1562 1563 1563 1563 1563 1563 1563 1563 1563 1562 1562 1563 1563 1562 1561 1561 1560 1559 1559 1558 1558 1557 1557 1556 1556 1556 1555 1555 1554 1553 1552 1552 1552 1552 1551 1551 1550 1550 1549 1548 1548 1549 1549 1549 1549 1548 1548 1548 1548
1534 1536 1537 1538 1539 1540 1541 1542 1542 1544 1545 1546 1547 1548 1549 1550 1551 1551 1552 1553 1554 1555 1555 1556 1556 1557 1558 1558 1559 1559 1559 1559 1560 1560 1560 1560 1561 1562 1562 1562 1562 1562 1562 1562 1561 1561 1561 1561 1561 1561 1560 1560 1559 1558 1558 1557 1557 1557 1556 1555 1555 1554 1553 1553 1552 1551 1550 1549 1549 1548 1548 1548 1548 1547 1546 1546 1545 1545 1545 1545 1545 1545 1545 1545 1545
1532 1533 1534 1536 1537 1538 1538 1539 1540 1542 1543 1544 1545 1546 1547 1548 1549 1550 1551 1552 1552 1553 1554 1555 1555 1555 1556 1557 1557 1558 1558 1558 1559 1559 1559 1559 1559 1560 1560 1560 1560 1560 1561 1561 1560 1560 1560 1559 1560 1560 1559 1559 1558 1557 1557 1556 1555 1555 1555 1555 1554 1553 1553 1552 1551 1549 1548 1547 1546 1545 1545 1544 1544 1544 1543 1543 1543 1542 1542 1542 1542 1542 1542 1542 1542
1529 1530 1532 1533 1535 1535 1536 1537 1538 1540 1541 1542 1543 1545 1545 1546 1547 1548 1549 1550 1551 1551 1552 1552 1553 1554 1554 1555 1556 1556 1557 1557 1557 1558 1558 1558 1558 1558 1558 1558 1559 1559 1559 1559 1558 1557 1558 1558 1558 1558 1558 1557 1557 1556 1555 1554 1553 1553 1553 1552 1552 1551 1551 1550 1549 1548 1547 1546 1544 1543 1542 1542 1541 1540 1540 1540 1539 1539 1539 1539 1539 1539 1539 1539 1539
1526 1527 1529 1530 1531 1532 1534 1535 1536 1537 1539 1540 1541 1542 1543 1544 1545 1546 1547 1548 1549 1549 1549 1550 1551 1552 1553 1553 1554 1554 1554 1555 1556 1556 1557 1557 1557 1557 1557 1557 1557 1557 1558 1558 1556 1555 1556 1556 1556 1556 1556 1555 1554 1554 1553 1552 1551 1551 1550 1549 1548 1548 1547 1547 1546 1546 1545 1544 1543 1542 1541 1540 1539 1538 1537 1536 1536 1536 1536 1536 1536 1535 1535 1535 1535
1523 1525 1526 1527 1528 1530 1531 1533 1533 1534 1536 1537 1538 1540 1541 1542 1543 1544 1545 1546 1547 1547 1547 1548 1549 1550 1550 1551 1552 1552 1552 1553 1553 1554 1554 1555 1555 1555 1555 1555 1555 1556 1556 1555 1554 1553 1553 1554 1554 1553 1553 1552 1552 1551 1550 1549 1549 1548 1547 1546 1545 1544 1544 1543 1542 1542 1541 1541 1540 1539 1538 1537 1537 1536 1535 1534 1533 1532 1532 1532 1532 1532 1531 1531 1531
1520 1521 1523 1524 1525 1527 1528 1529 1530 1531 1533 1534 1535 1537 1538 1539 1540 1541 1542 1543 1544 1545 1545 1546 1547 1547 1548 1549 1549 1550 1551 1551 1551 1552 1552 1553 1553 1553 1553 1553 1553 1553 1554 1553 1552 1551 1550 1550 1551 1550 1550 1550 1549 1548 1548 1547 1547 1546 1545 1544 1542 1541 1540 1539 1539 1538 1537 1537 1536 1535 1535 1534 1534 1533 1532 1531 1530 1529 1529 1529 1528 1528 1527 1527 1527
1517 1518 1519 1520 1522 1523 1524 1525 1526 1528 1529 1531 1532 1533 1534 1536 1537 1537 1539 1540 1541 1542 1542 1543 1544 1545 1545 1546 1547 1548 1549 1549 1549 1549 1550 1550 1550 1550 1550 1550 1550 1551 1551 1551 1550 1549 1547 1547 1547 1547 1547 1547 1546 1546 1546 1545 1545 1544 1542 1541 1540 1539 1537 1536 1535 1534 1534 1533 1533 1532 1532 1531 1531 1530 1529 1529 1528 1527 1526 1526 1525 1525 1524 1524 1524
1513 1514 1515 1516 1518 1519 1520 1521 1522 1523 1525 1527 1528 1530 1531 1532 1533 1534 1536 1537 1538 1539 1540 1541 1542 1543 1543 1544 1545 1545 1546 1546 1547 1547 1548 1548 1548 1548 1548 1548 1548 1548 1549 1549 1548 1547 1546 1544 1544 1544 1544 1543 1543 1543 1543 1542 1541 1540 1539 1538 1537 1536 1535 1534 1533 1531 1531 1530 1530 1529 1529 1528 1528 1527 1527 1526 1525 1524 1523 1523 1522 1521 1521 1521 1520
1509 1510 1511 1512 1513 1514 1515 1516 1518 1519 1520 1522 1524 1525 1527 1529 1530 1531 1533 1534 1535 1536 1537 1539 1540 1541 1541 1542 1543 1543 1543 1544 1545 1545 1546 1546 1546 1547 1547 1547 1547 1547 1546 1546 1546 1545 1544 1543 1542 1541 1541 1541 1540 1540 1540 1539 1538 1537 1536 1535 1534 1533 1532 1531 1530 1529 1528 1527 1527 1526 1525 1525 1524 1523 1523 1522 1521 1521 1520 1519 1519 1518 1518 1517 1517
1506 1507 1507 1508 1509 1510 1511 1512 1514 1515 1516 1517 1519 1521 1523 1525 1527 1528 1530 1531 1532 1534 1535 1536 1537 1538 1539 1539 1540 1540 1541 1541 1542 1543 1544 1545 1545 1545 1545 1545 1545 1545 1544 1544 1543 1543 1542 1541 1540 1539 1539 1538 1537 1537 1537 1536 1535 1533 1532 1531 1531 1530 1529 1528 1527 1526 1525 1525 1524 1523 1523 1522 1521 1520 1519 1518 1518 1517 1516 1515 1515 1514 1514 1513 1513
1503 1503 1503 1505 1506 1507 1508 1509 1510 1511 1512 1513 1515 1517 1519 1521 1523 1525 1526 1528 1530 1531 1532 1533 1535 1536 1536 1537 1538 1538 1538 1539 1540 1541 1542 1543 1543 1543 1544 1543 1543 1543 1542 1542 1541 1541 1540 1539 1538 1537 1536 1535 1535 1534 1533 1533 1532 1530 1529 1528 1527 1527 1526 1525 1524 1523 1523 1522 1521 1521 1520 1519 1517 1516 1515 1514 1514 1513 1512 1511 1510 1509 1509 1508 1508
1499 1500 1500 1502 1503 1503 1504 1505 1507 1508 1509 1510 1512 1514 1516 1518 1521 1523 1524 1525 1527 1528 1529 1531 1532 1533 1534 1535 1535 1536 1536 1536 1537 1539 1540 1541 1541 1542 1542 1541 1541 1540 1540 1539 1539 1538 1537 1536 1535 1534 1533 1533 1532 1531 1531 1530 1529 1528 1527 1526 1525 1524 1523 1522 1521 1521 1520 1519 1518 1517 1516 1515 1514 1512 1511 1510 1510 1509 1507 1506 1505 1504 1504 1503 1503
1497 1498 1499 1500 1500 1501 1501 1502 1504 1505 1506 1508 1509 1511 1514 1517 1519 1520 1521 1522 1524 1525 1526 1527 1529 1530 1532 1533 1533 1534 1535 1535 1535 1536 1538 1539 1539 1539 1539 1539 1538 1538 1537 1537 1536 1535 1534 1533 1532 1532 1531 1530 1529 1529 1528 1528 1527 1526 1525 1524 1522 1521 1520 1519 1518 1518 1517 1516 1514 1513 1512 1511 1509 1508 1507 1506 1505 1504 1503 1502 1501 1500 1499 1498 1498
1494 1496 1498 1498 1497 1498 1499 1500 1502 1503 1503 1506 1507 1509 1513 1516 1516 1516 1518 1519 1520 1522 1523 1524 1526 1527 1529 1530 1532 1534 1534 1534 1534 1534 1535 1536 1537 1537 1537 1536 1536 1535 1534 1534 1533 1532 1531 1530 1530 1529 1528 1527 1526 1526 1526 1526 1525 1524 1523 1522 1520 1519 1518 1516 1514 1514 1514 1513 1511 1509 1508 1507 1505 1503 1502 1501 1500 1499 1498 1497 1496 1495 1494 1494 1493
1491 1493 1495 1495 1495 1495 1496 1498 1500 1500 1501 1503 1503 1504 1508 1512 1513 1513 1514 1516 1518 1519 1521 1522 1523 1525 1526 1527 1529 1531 1532 1532 1532 1532 1533 1534 1534 1534 1534 1534 1534 1533 1532 1531 1530 1529 1529 1527 1527 1526 1525 1523 1523 1523 1523 1523 1522 1521 1520 1519 1518 1516 1515 1513 1511 1510 1511 1510 1508 1505 1503 1503 1502 1499 1497 1496 1495 1494 1493 1491 1490 1489 1489 1489 1489
1489 1490 1492 1493 1493 1493 1493 1494 1496 1497 1499 1500 1500 1502 1505 1508 1510 1511 1512 1514 1516 1517 1519 1520 1522 1523 1524 1524 1525 1528 1529 1530 1530 1531 1531 1532 1532 1532 1532 1531 1531 1530 1529 1528 1528 1527 1526 1525 1524 1523 1521 1520 1520 1520 1520 1519 1518 1517 1517 1516 1515 1513 1512 1510 1508 1507 1507 1507 1505 1500 1497 1497 1497 1494 1491 1491 1490 1489 1488 1487 1486 1486 1485 1485 1485
1486 1487 1489 1491 1491 1492 1492 1492 1493 1494 1496 1498 1498 1501 1504 1506 1508 1509 1511 1513 1515 1516 1517 1518 1520 1521 1522 1522 1523 1525 1526 1526 1528 1528 1528 1530 1530 1530 1529 1529 1528 1527 1527 1526 1525 1524 1523 1522 1520 1519 1518 1518 1517 1517 1517 1516 1515 1514 1514 1513 1512 1510 1509 1507 1505 1504 1504 1504 1502 1497 1491 1491 1492 1489 1486 1487 1486 1485 1484 1483 1482 1482 1481 1481 1481
1483 1484 1486 1488 1489 1489 1490 1491 1491 1492 1493 1495 1496 1498 1501 1503 1506 1507 1509 1512 1513 1514 1515 1516 1517 1519 1520 1521 1521 1522 1522 1524 1525 1525 1526 1527 1527 1527 1526 1526 1525 1524 1524 1523 1522 1521 1520 1519 1517 1516 1516 1515 1515 1514 1514 1514 1513 1512 1511 1510 1508 1507 1505 1504 1502 1500 1500 1500 1498 1493 1486 1485 1487 1486 1483 1483 1482 1480 1480 1479 1478 1478 1478 1477 1477
1480 1481 1483 1485 1486 1487 1488 1489 1489 1490 1491 1492 1494 1496 1498 1500 1503 1505 1507 1509 1511 1512 1513 1514 1515 1517 1517 1518 1519 1519 1521 1522 1523 1522 1523 1524 1524 1524 1524 1523 1522 1522 1521 1520 1519 1518 1517 1516 1515 1514 1513 1513 1512 1512 1511 1511 1510 1510 1508 1507 1505 1503 1501 1500 1498 1497 1496 1496 1496 1492 1484 1482 1484 1483 1480 1480 1479 1477 1476 1476 1475 1475 1474 1473 1472
1476 1477 1479 1481 1482 1484 1485 1486 1487 1488 1488 1490 1492 1494 1496 1498 1501 1502 1505 1507 1508 1509 1510 1510 1512 1513 1514 1515 1516 1517 1519 1520 1520 1520 1520 1520 1520 1520 1520 1519 1519 1518 1518 1517 1516 1515 1515 1513 1512 1511 1511 1510 1510 1509 1509 1509 1508 1507 1505 1504 1502 1501 1499 1496 1494 1494 1493 1492 1493 1491 1484 1481 1482 1481 1478 1477 1476 1473 1472 1472 1470 1470 1469 1467 1466
1474 1474 1476 1477 1479 1481 1482 1483 1485 1485 1486 1487 1489 1490 1492 1495 1497 1499 1502 1504 1504 1505 1506 1507 1509 1510 1511 1512 1514 1516 1516 1517 1517 1517 1518 1517 1518 1517 1517 1516 1515 1514 1514 1513 1513 1513 1512 1511 1510 1509 1508 1508 1508 1507 1507 1506 1505 1504 1502 1501 1500 1498 1496 1493 1491 1491 1490 1490 1489 1488 1483 1480 1479 1478 1475 1473 1472 1469 1467 1466 1466 1465 1463 1462 1461
1472 1472 1473 1475 1477 1478 1479 1480 1482 1482 1483 1484 1485 1486 1488 1491 1493 1495 1498 1500 1501 1502 1503 1505 1506 1507 1508 1509 1511 1513 1514 1514 1514 1514 1514 1514 1515 1515 1514 1513 1512 1512 1511 1511 1511 1510 1509 1508 1507 1507 1506 1505 1504 1504 1503 1502 1502 1501 1500 1497 1497 1495 1493 1491 1490 1488 1487 1486 1486 1485 1481 1478 1476 1475 1472 1468 1465 1464 1463 1462 1461 1460 1459 1458 1457
1471 1471 1471 1473 1474 1475 1476 1478 1479 1480 1480 1482 1483 1484 1486 1488 1490 1492 1494 1496 1498 1500 1501 1502 1504 1504 1505 1506 1508 1509 1510 1510 1511 1511 1512 1512 1512 1512 1511 1511 1510 1509 1509 1508 1508 1507 1506 1505 1504 1504 1503 1502 1501 1500 1500 1499 1499 1499 1497 1495 1494 1493 1491 1489 1488 1486 1483 1482 1483 1482 1478 1474 1473 1472 1470 1466 1460 1458 1458 1458 1456 1456 1455 1453 1452